Temperature
10 10 9 10 10 10 10 10 10 10 10 10 10 10 10 10 10 10 10 10 10 10 10 9 9 9 9 9 10 10 10 10 10 10 10 10 10 10 9 9 9 9 9
9 9 9 9 9 9 9 9 9 9 9 9 9 9 9 9 9 9 9 9 9 9 9 9 9 9 9 9 9 9 9 10 9 9 9 9 9 9 9 9 9 9 9
9 9 9 9 9 9 9 9 9 9 9 9 9 9 9 9 9 9 9 9 9 9 9 9 9 9 9 9 9 9 9 9 9 9 9 9 9 9 9 9 9 9 9
8 8 8 8 8 8 8 8 8 8 8 8 8 8 8 9 9 9 9 9 9 8 9 9 9 8 9 9 9 8 9 8 9 9 8 8 8 9 9 8 8 8 8
8 8 8 8 8 8 8 8 8 8 8 8 8 8 8 8 8 8 8 8 8 8 8 8 8 8 8 8 8 8 8 8 8 8 8 8 8 8 8 8 8 8 8
8 7 7 7 7 7 7 7 7 7 7 7 7 7 7 8 8 8 8 8 8 8 8 8 8 8 8 8 8 8 8 7 7 7 7 7 7 8 8 8 8 8 8
7 7 7 7 7 7 7 7 7 7 7 7 6 6 7 7 7 7 7 7 7 7 7 7 7 7 7 7 7 7 7 7 7 7 7 7 7 7 7 7 7 7 8
7 7 7 7 6 6 6 6 6 6 6 6 6 5 5 6 6 6 6 7 6 7 7 7 7 6 6 7 7 7 7 6 6 6 6 6 6 6 7 7 7 7 7
6 6 6 6 6 6 6 6 6 5 5 6 5 5 5 6 5 5 6 6 6 6 6 6 6 6 6 6 6 6 6 6 6 6 6 6 6 6 6 6 6 7 7
6 6 6 6 5 5 5 5 5 5 5 5 5 5 5 5 4 4 5 5 5 5 5 5 5 5 5 5 5 5 5 5 5 5 5 5 5 6 6 6 6 6 6
5 5 5 5 5 5 5 5 5 4 4 4 4 4 4 4 4 4 4 4 4 4 4 4 4 5 5 5 5 5 5 5 5 5 5 5 5 5 5 5 6 6 6
5 5 5 5 5 4 4 4 4 4 4 4 4 4 4 3 3 3 3 3 3 4 4 4 4 4 4 4 4 4 4 4 4 4 4 5 4 5 5 5 5 5 6
4 4 4 4 4 4 4 4 4 4 3 3 3 3 3 3 3 3 3 3 3 3 3 3 3 3 3 3 3 3 4 4 4 4 4 4 4 4 4 4 5 5 5
4 4 4 4 4 4 4 3 3 3 3 3 3 3 3 3 2 2 2 2 2 2 2 2 3 3 3 3 3 3 3 3 3 3 3 4 4 4 4 4 4 4 4
4 4 3 3 3 3 3 3 3 3 3 3 3 2 2 2 2 2 2 2 2 1 1 2 2 2 2 2 2 2 2 3 3 3 3 3 3 3 3 4 4 4 4
3 3 3 3 3 3 3 3 3 3 2 2 2 2 2 2 1 1 1 1 1 1 1 1 1 1 2 2 2 2 2 2 3 3 3 3 3 3 3 3 4 4 4
3 3 3 3 3 2 2 2 2 2 2 2 2 2 2 1 1 1 1 1 1 0 0 1 1 1 1 1 1 2 2 2 2 2 2 2 3 3 3 3 3 3 4
2 2 2 2 2 2 2 2 2 2 2 2 2 1 1 1 1 1 0 0 0 0 0 0 0 0 0 1 1 1 1 2 2 2 2 2 2 3 3 3 3 3 3
2 2 2 2 2 2 1 1 1 2 1 1 1 1 1 1 0 0 0 0 0 -0 -0 -0 -0 -0 -0 0 1 1 1 1 2 2 2 2 2 2 2 3 3 3 3
2 2 2 1 1 1 1 1 1 1 1 1 1 1 1 0 0 0 -0 -0 -0 -0 -1 -1 -1 -1 -0 -0 0 0 0 1 1 1 2 2 2 2 2 2 2 2 2
2 2 1 1 1 1 1 1 1 1 1 0 0 0 0 0 0 -0 -1 -1 -1 -1 -1 -1 -1 -1 -1 -1 -1 -1 -1 -0 0 1 1 1 1 1 2 2 2 2 2
2 1 1 1 1 1 1 0 0 0 -0 -0 -0 -0 -0 -0 -0 -0 -1 -1 -1 -1 -1 -1 -1 -1 -1 -1 -1 -1 -1 -1 -1 0 0 1 1 1 1 1 1 2 2
1 1 1 0 1 0 0 -0 -0 -0 -1 -1 -1 -1 -1 -1 -1 -1 -1 -1 -1 -1 -1 -1 -1 -1 -1 -1 -1 -1 -1 -1 -1 -0 -0 0 0 0 1 1 1 1 1
1 0 0 0 0 0 -0 -0 -1 -1 -1 -1 -1 -1 -1 -1 -1 -1 -1 -1 -1 -1 -1 -1 -1 -1 -1 -1 -1 -1 -1 -1 -1 -1 -1 -1 -0 -0 0 1 1 1 1
0 -0 -0 -0 -0 -0 -0 -1 -1 -1 -1 -1 -1 -1 -1 -2 -1 -1 -2 -2 -2 -2 -1 -1 -1 -1 -1 -1 -1 -2 -2 -2 -2 -1 -1 -2 -1 -1 -0 0 0 0 0
-0 -0 -1 -1 -1 -1 -1 -1 -1 -2 -2 -2 -2 -2 -2 -2 -2 -2 -2 -2 -2 -2 -2 -1 -2 -2 -2 -2 -2 -2 -2 -2 -2 -2 -2 -2 -2 -2 -1 -1 -0 -0 -0
Wind_Speed
2 1 1 1 1 1 1 1 1 1 2 2 2 2 2 3 3 2 1 2 3 4 4 5 5 4 5 5 5 6 6 7 7 8 8 8 8 8 8 8 8 8 8
2 2 2 1 1 2 2 2 2 2 2 2 2 3 3 3 3 3 3 2 2 3 4 5 5 5 5 5 6 6 7 7 8 8 9 9 9 9 8 8 9 9 9
3 2 2 2 2 2 2 2 2 2 2 2 3 3 3 3 3 4 4 4 3 3 4 5 5 5 6 6 6 7 8 8 8 9 9 10 10 9 9 9 10 10 11
3 3 2 2 2 2 2 2 2 2 2 2 2 2 3 3 4 4 4 4 3 3 3 4 5 5 6 6 7 8 8 9 9 9 10 10 10 10 9 9 10 11 11
4 3 3 2 3 2 2 2 2 3 3 3 3 3 3 3 4 4 4 4 4 4 4 3 4 4 5 6 7 8 8 9 9 9 10 10 10 10 10 10 10 11 11
4 3 3 3 3 2 2 2 2 2 3 3 3 3 4 4 4 4 4 4 4 4 4 4 3 3 4 5 7 8 8 9 9 9 10 10 10 10 10 10 11 11 11
4 3 3 3 3 3 3 3 3 3 3 2 3 3 4 5 5 4 4 4 4 3 3 3 3 3 3 4 5 7 8 9 9 9 9 9 10 10 10 10 11 11 11
4 4 4 3 3 3 4 4 3 3 3 3 3 3 3 4 4 4 4 3 4 3 3 3 3 3 4 4 4 6 8 9 10 9 10 10 11 11 11 11 11 11 11
4 4 5 4 4 4 4 4 4 5 4 3 3 3 3 3 2 3 4 4 3 3 3 3 4 4 5 5 5 5 7 9 10 10 10 10 11 11 11 11 10 11 11
4 4 5 5 4 4 4 5 5 5 5 4 4 4 4 3 3 2 3 3 3 4 4 3 4 5 5 5 5 6 7 9 10 10 10 11 11 11 11 11 10 10 10
4 4 4 4 4 4 5 4 4 5 4 5 4 3 4 3 4 4 4 3 3 3 4 4 4 4 5 5 5 5 7 8 10 10 10 11 11 12 11 11 11 10 10
3 4 4 4 4 4 5 5 4 5 4 5 5 4 4 3 3 4 5 5 4 4 4 4 4 4 4 5 5 6 7 8 9 10 10 11 12 11 11 11 11 11 11
4 5 5 5 5 5 5 5 5 5 5 6 5 4 4 4 4 4 5 5 5 5 4 4 4 4 4 5 5 6 7 8 9 10 11 11 11 11 11 11 10 11 11
5 5 5 5 5 5 5 5 5 5 5 6 6 6 5 5 4 5 5 5 5 5 5 5 4 4 4 4 5 7 7 8 10 10 11 11 11 11 11 11 11 11 11
4 5 6 6 6 6 6 6 5 6 5 5 6 6 5 5 5 5 5 5 5 5 6 5 3 4 4 5 6 7 7 8 10 11 11 11 11 10 10 10 11 11 11
5 6 6 6 6 6 6 6 6 5 6 6 5 6 6 5 5 5 5 5 6 6 6 5 5 5 5 5 7 8 8 10 10 10 11 11 10 10 10 10 11 11 11
6 6 6 6 6 6 6 6 6 6 7 6 5 6 6 6 5 5 5 5 5 6 7 7 5 5 6 6 6 7 7 8 8 10 11 10 10 9 10 11 11 11 10
6 6 6 7 7 7 7 7 7 7 7 7 7 6 7 5 7 6 5 5 5 6 7 8 6 5 7 6 6 7 6 7 8 10 10 10 9 9 10 10 10 10 10
6 6 6 7 7 7 7 7 7 7 7 8 7 7 7 7 7 6 6 5 5 5 6 7 6 5 5 5 5 6 7 6 7 8 10 9 9 9 10 10 10 9 8
7 7 7 7 7 7 7 7 7 7 7 7 7 7 7 7 7 7 6 6 5 5 6 6 6 5 4 4 4 5 5 5 6 6 6 7 8 8 9 9 9 8 8
7 7 7 7 7 7 7 7 7 7 7 7 7 7 7 7 8 7 5 6 5 5 5 5 6 5 5 4 4 4 6 6 6 4 4 5 5 5 6 7 8 8 8
6 6 7 7 7 6 6 7 7 7 7 7 7 7 7 8 8 9 9 8 7 7 6 6 6 6 7 6 5 5 5 5 5 3 4 5 5 5 5 5 6 7 8
6 7 7 7 7 7 7 8 8 7 7 7 7 6 5 6 7 7 8 9 9 9 9 8 8 8 7 6 6 6 6 6 6 5 5 6 5 5 5 5 7 8 8
6 6 7 7 7 7 7 8 8 8 7 7 7 7 7 7 7 7 7 7 7 7 8 7 8 8 7 6 6 6 6 6 6 4 4 4 5 5 5 6 6 7 7
6 6 6 7 7 7 7 8 8 6 6 7 6 6 6 7 7 7 7 6 6 6 6 8 8 7 7 7 5 4 4 4 4 4 3 3 3 5 5 5 4 5 7
6 5 6 6 7 7 7 8 8 5 5 5 5 6 6 7 6 7 6 6 6 6 5 5 5 6 6 6 6 5 5 4 4 3 2 2 3 3 3 3 4 4 5
Wind_Direction
205 210 223 232 258 274 270 272 261 261 259 257 251 251 252 252 253 256 273 313 293 282 277 280 278 284 291 294 293 295 298 301 305 309 309 299 299 294 289 290 285 286 288
210 212 221 230 247 257 262 265 264 260 254 251 250 248 253 250 250 253 263 260 272 286 285 283 277 282 288 294 296 296 297 299 300 302 304 303 301 292 287 286 288 285 285
215 221 224 228 240 244 245 258 263 264 261 253 252 255 258 254 254 254 259 261 254 261 285 291 286 287 289 292 295 299 298 296 297 299 300 299 301 296 286 286 287 284 280
223 221 225 227 231 231 233 236 248 253 254 257 260 260 257 255 255 255 254 256 262 263 265 284 289 291 293 296 298 295 296 294 295 297 297 297 296 297 290 290 289 286 280
227 222 223 225 219 221 228 235 241 250 253 259 266 268 264 261 259 257 254 258 259 265 267 272 278 292 299 300 302 300 295 295 293 295 296 297 298 297 292 292 291 290 287
227 226 219 223 220 217 223 232 240 253 259 259 267 271 267 264 258 257 256 256 256 260 263 268 269 277 294 303 306 307 298 297 295 297 295 296 301 299 298 294 294 291 292
223 221 223 216 218 221 226 230 237 242 253 254 258 265 260 251 249 251 253 261 262 261 259 260 270 281 287 293 302 309 306 302 303 302 300 300 303 301 301 301 297 295 295
222 220 222 220 219 223 224 222 227 235 240 243 249 255 254 242 226 242 252 256 259 257 258 262 269 279 284 286 297 304 307 305 303 303 303 299 302 303 302 303 299 298 299
223 223 221 222 222 224 227 225 224 228 234 237 246 247 252 248 270 229 240 244 256 262 265 273 278 280 282 285 286 291 305 306 303 301 301 303 304 300 300 302 301 300 302
223 223 223 221 222 225 230 233 233 235 234 233 235 246 263 279 265 263 232 241 263 268 271 275 277 278 280 281 284 295 303 302 303 301 301 303 306 302 299 301 300 300 301
222 222 223 225 226 228 231 233 237 237 237 238 236 238 242 253 260 258 265 269 274 272 275 272 273 275 279 276 279 293 299 301 301 300 303 305 304 304 300 298 299 299 297
229 226 225 229 231 232 231 229 231 234 236 239 238 236 236 238 245 253 262 267 274 277 277 270 266 268 273 278 283 297 300 302 302 301 303 305 305 301 301 300 298 299 299
233 230 228 231 234 234 233 231 227 229 231 234 236 238 240 241 248 253 259 267 274 276 267 262 266 265 267 279 284 296 292 296 298 299 300 300 302 299 298 299 299 298 298
235 235 231 233 235 235 233 230 230 230 230 230 235 236 238 238 238 242 250 260 269 270 263 267 279 263 266 277 288 294 287 291 294 294 296 297 298 296 294 294 295 295 294
235 233 233 234 237 235 234 232 230 230 231 230 231 232 236 239 240 243 245 248 252 264 269 268 270 270 279 279 282 283 283 288 291 291 291 292 293 292 291 290 289 292 294
231 230 232 234 235 234 232 231 232 232 231 230 230 231 235 237 239 240 241 247 254 258 266 272 272 278 281 277 279 281 280 285 281 286 286 287 288 290 289 289 288 288 291
231 229 229 230 231 232 230 229 230 230 231 233 231 232 236 238 240 241 241 243 250 254 260 274 276 277 277 278 279 278 280 279 279 281 283 284 287 289 290 290 287 287 289
232 232 230 230 231 232 230 228 228 230 232 233 232 231 235 237 240 242 241 243 249 253 258 268 274 276 276 278 283 282 281 278 278 279 281 282 283 284 287 288 286 289 291
230 231 229 229 231 232 231 231 230 230 234 235 231 231 234 234 238 240 241 245 250 254 256 261 270 277 277 282 290 285 282 281 278 276 280 275 276 281 283 285 288 292 296
230 230 231 231 232 232 232 232 232 233 234 234 230 229 232 233 237 239 241 243 249 255 255 257 263 272 279 289 288 290 288 288 285 281 278 281 280 278 277 282 287 289 296
234 232 232 232 232 232 233 233 232 233 233 233 230 229 230 234 239 241 244 245 246 253 254 256 260 268 270 282 282 285 285 290 288 278 288 286 279 275 274 275 279 285 290
235 233 233 232 232 233 237 237 235 231 232 234 234 234 232 231 235 238 243 248 247 247 250 253 257 258 264 268 278 277 282 287 287 283 291 287 279 276 275 274 281 287 288
234 233 235 235 236 237 234 235 235 234 234 235 236 236 235 235 235 240 239 240 243 246 249 252 254 254 260 264 268 271 272 275 279 288 289 280 281 281 282 278 285 288 290
233 234 236 237 239 240 236 236 235 234 237 237 237 236 236 235 233 238 237 244 247 247 251 254 258 262 262 263 260 262 265 278 290 282 273 271 286 291 295 283 280 280 284
233 233 235 238 240 241 236 234 233 235 237 238 239 239 238 238 235 232 236 244 252 258 259 260 271 274 277 272 267 257 259 270 287 286 274 263 282 302 295 282 278 279 281
236 236 236 237 239 241 238 234 228 232 237 240 241 238 236 240 238 230 232 239 249 259 262 260 260 262 265 258 251 243 239 249 274 273 269 270 274 301 298 287 293 290 281
Height
1512 1512 1512 1512 1512 1512 1512 1512 1512 1512 1511 1511 1511 1511 1511 1510 1510 1510 1509 1509 1509 1509 1509 1508 1508 1508 1507 1507 1506 1506 1506 1505 1505 1504 1504 1503 1503 1502 1502 1501 1500 1500 1499
1510 1510 1510 1510 1510 1510 1510 1510 1510 1509 1509 1509 1508 1508 1508 1508 1507 1507 1507 1507 1506 1506 1506 1506 1505 1505 1504 1504 1504 1503 1503 1502 1502 1501 1501 1500 1500 1499 1499 1498 1497 1496 1496
1507 1507 1507 1507 1507 1507 1507 1507 1507 1507 1507 1506 1506 1506 1505 1505 1505 1505 1504 1504 1504 1503 1503 1503 1502 1502 1501 1501 1500 1500 1499 1499 1498 1498 1498 1497 1496 1496 1495 1495 1494 1493 1492
1505 1505 1505 1504 1504 1505 1505 1505 1505 1504 1504 1504 1503 1503 1503 1502 1502 1502 1501 1501 1500 1500 1500 1499 1499 1498 1498 1498 1497 1497 1496 1496 1495 1494 1494 1493 1493 1492 1492 1491 1490 1489 1489
1501 1502 1502 1501 1501 1502 1502 1502 1502 1502 1501 1501 1501 1500 1500 1499 1499 1499 1498 1498 1497 1497 1496 1496 1495 1495 1495 1494 1494 1493 1492 1492 1492 1491 1490 1490 1489 1489 1488 1487 1487 1486 1485
1498 1498 1498 1498 1498 1498 1498 1498 1499 1498 1498 1498 1497 1497 1497 1496 1496 1495 1495 1495 1494 1493 1493 1492 1492 1491 1491 1490 1490 1489 1489 1488 1488 1487 1486 1486 1485 1485 1484 1483 1483 1482 1481
1495 1495 1495 1495 1495 1495 1495 1495 1495 1495 1495 1495 1495 1494 1493 1493 1492 1492 1491 1491 1491 1490 1490 1489 1489 1488 1487 1487 1486 1485 1485 1485 1484 1483 1483 1482 1481 1481 1480 1479 1479 1478 1477
1491 1492 1492 1491 1492 1491 1491 1491 1492 1491 1491 1492 1492 1491 1491 1491 1488 1488 1487 1487 1487 1487 1486 1486 1485 1485 1484 1483 1482 1482 1481 1481 1480 1479 1479 1478 1477 1477 1476 1475 1474 1474 1473
1487 1488 1488 1488 1488 1488 1488 1488 1488 1488 1488 1488 1489 1489 1489 1487 1486 1484 1484 1484 1483 1483 1483 1482 1481 1481 1480 1479 1478 1478 1477 1477 1476 1475 1475 1474 1473 1473 1472 1471 1470 1470 1469
1484 1484 1484 1484 1484 1484 1484 1484 1484 1484 1484 1484 1484 1485 1485 1484 1484 1481 1481 1481 1480 1480 1479 1478 1478 1477 1476 1475 1474 1474 1473 1473 1472 1471 1471 1470 1469 1468 1468 1467 1466 1465 1464
1479 1480 1480 1480 1480 1480 1480 1480 1480 1480 1480 1480 1481 1480 1481 1480 1480 1480 1478 1477 1477 1476 1476 1474 1474 1473 1472 1471 1471 1470 1469 1468 1468 1467 1466 1465 1464 1464 1463 1462 1461 1460 1460
1475 1475 1476 1476 1476 1476 1476 1476 1476 1476 1476 1477 1477 1476 1476 1476 1476 1476 1475 1473 1473 1472 1472 1471 1470 1469 1469 1468 1466 1466 1465 1464 1463 1462 1462 1461 1460 1459 1458 1457 1456 1456 1455
1471 1471 1471 1472 1472 1472 1472 1472 1472 1472 1472 1472 1472 1472 1472 1472 1472 1473 1472 1470 1469 1468 1468 1467 1466 1465 1465 1464 1463 1461 1461 1460 1459 1458 1457 1456 1455 1454 1453 1452 1451 1451 1450
1467 1467 1468 1468 1468 1468 1468 1468 1468 1468 1468 1468 1468 1468 1468 1468 1468 1468 1468 1467 1466 1465 1464 1463 1462 1462 1461 1460 1459 1457 1456 1455 1454 1453 1452 1451 1450 1449 1448 1447 1447 1446 1445
1463 1464 1464 1464 1463 1463 1464 1464 1463 1464 1463 1463 1463 1463 1463 1464 1464 1464 1464 1464 1464 1462 1460 1459 1459 1458 1457 1456 1454 1453 1452 1451 1450 1449 1447 1446 1445 1444 1443 1442 1441 1441 1439
1459 1459 1459 1459 1459 1459 1459 1459 1459 1459 1459 1459 1459 1459 1459 1459 1459 1459 1460 1460 1460 1460 1457 1455 1454 1453 1453 1452 1450 1449 1447 1446 1446 1444 1443 1442 1441 1440 1439 1437 1437 1435 1434
1455 1455 1455 1455 1455 1455 1454 1454 1454 1454 1454 1454 1454 1454 1454 1454 1455 1455 1455 1455 1455 1455 1453 1451 1451 1450 1449 1447 1446 1445 1444 1442 1441 1440 1439 1437 1436 1435 1434 1433 1432 1430 1429
1450 1450 1450 1450 1450 1450 1450 1450 1450 1450 1450 1450 1449 1449 1450 1450 1450 1450 1450 1450 1451 1450 1450 1447 1446 1445 1444 1443 1442 1441 1439 1438 1437 1436 1435 1433 1432 1431 1430 1428 1427 1426 1424
1446 1446 1445 1445 1445 1445 1445 1445 1445 1445 1445 1445 1445 1445 1445 1445 1446 1446 1446 1446 1446 1446 1445 1444 1442 1442 1440 1439 1438 1437 1435 1434 1433 1432 1430 1429 1428 1427 1425 1424 1423 1421 1420
1441 1441 1441 1441 1441 1441 1441 1440 1441 1440 1440 1440 1440 1440 1441 1441 1441 1441 1442 1442 1442 1442 1441 1440 1439 1438 1436 1435 1434 1433 1431 1430 1429 1427 1426 1425 1424 1423 1421 1420 1419 1417 1416
1436 1436 1436 1436 1436 1436 1436 1436 1436 1436 1436 1436 1436 1436 1436 1436 1437 1437 1437 1437 1438 1437 1437 1436 1435 1434 1432 1431 1430 1429 1428 1426 1425 1424 1422 1421 1420 1419 1417 1416 1415 1413 1412
1431 1431 1431 1431 1431 1431 1431 1431 1431 1431 1431 1431 1431 1431 1431 1432 1432 1433 1433 1433 1433 1433 1433 1432 1431 1429 1428 1428 1427 1426 1425 1423 1421 1421 1418 1417 1416 1415 1414 1413 1411 1410 1408
1426 1426 1426 1426 1426 1426 1427 1427 1427 1427 1427 1427 1427 1427 1427 1427 1428 1428 1428 1429 1429 1429 1429 1428 1427 1425 1425 1424 1423 1422 1422 1420 1418 1417 1416 1413 1413 1411 1410 1409 1408 1406 1405
1421 1421 1422 1422 1422 1422 1422 1422 1422 1423 1423 1423 1423 1422 1422 1423 1423 1424 1424 1424 1424 1424 1424 1424 1423 1422 1422 1421 1420 1419 1418 1416 1415 1414 1413 1411 1409 1408 1407 1406 1404 1403 1402
1417 1417 1417 1417 1417 1417 1418 1418 1418 1418 1418 1418 1418 1418 1418 1418 1419 1420 1420 1420 1420 1420 1420 1419 1419 1418 1417 1417 1417 1416 1414 1413 1411 1411 1411 1409 1406 1405 1403 1402 1401 1400 1399
1413 1413 1413 1413 1413 1413 1413 1413 1414 1414 1414 1414 1414 1414 1414 1414 1415 1415 1416 1416 1415 1415 1415 1415 1415 1414 1414 1413 1413 1412 1411 1410 1409 1408 1407 1406 1404 1403 1400 1399 1398 1397 1396